Location: Pettit
(39.0209°N, 79.7181°W)
Time: 20:24:55
(UTC+00:00)

ACS3 Solar Sail - Pass Details

Date: 23 April 2026
Orbit: 894 x 947 km, 97.2° (Epoch: 12 May)

Event Time Altitude Azimuth Distance (km) Brightness Sun altitude
Rises 06:36:06 0° 9° (N) 3,554 5.7 -35.2°
Reaches altitude 10° 06:38:31 10° 8° (N) 2,616 4.8 -35.0°
Enters shadow 06:42:35 47° 357° (N) 1,214 2.5 -34.7°
